Regional Weather Roundup
Issued by NWS

Home | Current Version | Previous Version | Text Only | Print | Product List | Glossary On
Versions: 1 2 3 4 5 6 7 8 9 10 11 12 13 14 15 16 17 18 19 20 21 22 23 24 25 26 27 28 29 30 31 32 33 34 35 36 37 38 39 40 41 42 43 44 45 46 47 48 49 50
000
ASUS44 KOUN 211210
RWROK

WEATHER ROUNDUP FOR OKLAHOMA
NATIONAL WEATHER SERVICE NORMAN OK
700 AM CDT FRI JUL 21 2017

NOTE: "FAIR" INDICATES FEW OR NO CLOUDS BELOW 12,000 FEET WITH NO
      SIGNIFICANT WEATHER AND/OR OBSTRUCTIONS TO VISIBILITY.

OKZ001>007-009>012-014-015-017-211300-
NORTHWEST OKLAHOMA AND THE PANHANDLE

CITY           SKY/WX    TMP DP  RH WIND       PRES   REMARKS
GAGE           CLEAR     77  63  61 S16       29.99S
6HR MIN TEMP:  76; 6HR MAX TEMP:  83;

GUYMON         CLEAR     71  57  61 S10       29.99S
ENID/WOODRING  MOCLDY    79  70  73 S7        29.96S
$$

OKZ016-021>023-033>039-044-045-211300-
SOUTHWEST OKLAHOMA

CITY           SKY/WX    TMP DP  RH WIND       PRES   REMARKS
LAWTON/REGL    PTCLDY    75  71  87 E5        30.00R
6HR MIN TEMP:  75; 6HR MAX TEMP:  84;

LAWTON/FT SILL PTCLDY    77  68  73 CALM      29.99
FREDERICK      PTCLDY    77  68  73 SE7       29.96R
CLINTON        CLEAR     77  64  64 S14       30.01S
HOBART         CLEAR     77  67  71 S10       30.00R
ALTUS AFB      CLEAR     73  65  77 SE6       29.99R
$$

OKZ018>020-024>031-211300-
CENTRAL OKLAHOMA

CITY           SKY/WX    TMP DP  RH WIND       PRES   REMARKS
OKLAHOMA CITY  PTCLDY    75  69  81 S7        30.01R
6HR MIN TEMP:  74; 6HR MAX TEMP:  82;

OKC/WILEY POST MOCLDY    79  70  74 S10       30.00R
OKC/TINKER AFB PTCLDY    77  69  76 S10       30.00S
STILLWATER     CLEAR     77  69  76 S6        29.99R
GUTHRIE        MOCLDY    79  69  71 S7        29.99R
$$

OKZ008-013-054>072-211300-
NORTHEAST OKLAHOMA

CITY           SKY/WX    TMP DP  RH WIND       PRES   REMARKS
TULSA          PTCLDY    80  73  79 S12       29.98R
6HR MIN TEMP:  80; 6HR MAX TEMP:  86;

TULSA/JONES    CLEAR     75  72  90 CALM      30.00R
PONCA CITY     CLEAR     80  68  66 S6        29.97R
BARTLESVILLE   CLEAR     74  71  91 CALM      29.99R
MUSKOGEE       PTCLDY    75  73  93 S5        30.03R
$$

OKZ032-040>043-046>053-073>077-211300-
SOUTH CENTRAL/SOUTHEAST OKLAHOMA

CITY           SKY/WX    TMP DP  RH WIND       PRES   REMARKS
ARDMORE/DWNTWN CLEAR     73  68  83 CALM      30.01S
MCALESTER      CLEAR     77  72  84 CALM      30.03R
$$




USA.gov is the U.S. government's official web portal to all federal, state and local government web resources and services.